Torna al catalogo

COSMOS 1867 COOLANT

AttivoLEO
NORAD 43326·DEBRIS·🇷🇺 Russia

Lanciato Jul 10, 1987 da Baikonur Cosmodrome

Loading…

Prossimi Passaggi (prossime 24 ore)

TLE

In scadenzaSource: Space-Track

Epoca: Sep 11, 2026, 09:20 UTC

1 43326U 87060AT  26254.38897328  .00000172  00000-0  96456-4 0  9990
2 43326  65.0088 128.2784 0019220 279.7691  80.1224 14.34430433469616

Traccia COSMOS 1867 COOLANT in tempo reale con AllMySat

Download on the App Store